Flint, MI

10:05 AM EDT on September 21, 2017 (GMT -0400)
Bishop International

Weather History for KFNT - February, 2013

Change the Weather History Date:

Sunday, February 3, 2013

  Actual Average Record
Temperature  
Mean Temperature 9 °F 23 °F  
Max Temperature 20 °F 30 °F 55 °F (2016)
Min Temperature -3 °F 15 °F -11 °F (1996)
Degree Days  
Heating Degree Days 56 42  
Month to date heating degree days 164 126  
Since 1 July heating degree days 3697 4090  
Cooling Degree Days 0 0  
Month to date cooling degree days 0 0  
Year to date cooling degree days 0 0  
Moisture  
Dew Point 6 °F    
Average Humidity 77    
Maximum Humidity 87    
Minimum Humidity 67    
Precipitation  
Precipitation T in 0.05 in 0.41 in (2003)
Month to date precipitation 0.04 0.14  
Year to date precipitation 3.94 1.77  
Snow  
Snow T in 0.40 in 3.80 in (1949)
Month to date snowfall 1.9 1.2  
Since 1 July snowfall 23.6 29.0  
Snow Depth 3.00 in    
Sea Level Pressure  
Sea Level Pressure 29.92 in    
Wind  
Wind Speed 7 mph (West)    
Max Wind Speed 23 mph    
Max Gust Speed 29 mph    
Visibility 7 miles    
Events Snow    
T = Trace of Precipitation, MM = Missing Value Source: NWS Daily Summary

Daily Weather History Graph

Daily Weather History Graph

Search for Another Location

Airport or City:

Trip Planner

Search our weather history database for the weather conditions in past years. The results will help you decide how hot, cold, wet, or windy it might be!

Date:

Astronomy

Feb. 03, 2013 Rise Set
Actual Time 7:47 AM EST 5:50 PM EST
Civil Twilight 7:17 AM EST 6:20 PM EST
Nautical Twilight 6:43 AM EST 6:54 PM EST
Astronomical Twilight 6:10 AM EST 7:27 PM EST
Moon 1:14 AM EST (2/3) 11:26 AM EST (2/3)
Length of Visible Light 11h 03m
Length of Day
10h 03m
Waning Gibbous, 49% of the Moon is Illuminated
Feb 3
Waning Gibbous
Feb 10
New
Feb 17
First Quarter
Feb 25
Full
Mar 4
Last Quarter

Hourly Weather History & Observations

Time (EST) Temp. Windchill Dew Point Humidity Pressure Visibility Wind Dir Wind Speed Gust Speed Precip Events Conditions
12:53 AM 1.9 °F - -4.0 °F 76% 30.04 in 10.0 mi Calm Calm - N/A   Clear
1:10 AM 1.4 °F - -2.2 °F 85% 29.98 in 10.0 mi Calm Calm - N/A   Mostly Cloudy
1:53 AM 1.9 °F - -2.9 °F 80% 30.02 in 10.0 mi Calm Calm - N/A   Overcast
2:53 AM 3.0 °F - -2.0 °F 80% 30.02 in 10.0 mi Calm Calm - N/A   Scattered Clouds
3:53 AM 3.0 °F - -2.0 °F 80% 29.99 in 10.0 mi Calm Calm - N/A   Clear
4:53 AM -0.0 °F -7.9 °F -6.0 °F 76% 29.98 in 9.0 mi WSW 3.5 mph - N/A   Clear
5:53 AM -0.9 °F - -6.0 °F 79% 29.97 in 10.0 mi Calm Calm - N/A   Clear
6:53 AM -2.0 °F - -7.1 °F 79% 29.96 in 10.0 mi Calm Calm - N/A   Mostly Cloudy
7:53 AM 3.9 °F -5.3 °F -0.9 °F 80% 29.95 in 10.0 mi SSE 4.6 mph - N/A   Overcast
8:53 AM 5.0 °F - 1.0 °F 84% 29.96 in 10.0 mi Calm Calm - N/A   Overcast
9:53 AM 9.0 °F -0.9 °F 3.9 °F 80% 29.95 in 10.0 mi WSW 5.8 mph - N/A   Overcast
10:53 AM 14.0 °F 5.1 °F 6.1 °F 71% 29.93 in 10.0 mi SW 5.8 mph - N/A   Partly Cloudy
11:53 AM 15.1 °F 6.4 °F 7.0 °F 70% 29.92 in 5.0 mi SW 5.8 mph - 0.00 in Snow Light Snow
12:34 PM 17.6 °F 6.4 °F 8.6 °F 68% 29.84 in 3.0 mi SW 9.2 mph - 0.00 in Snow Light Snow
12:53 PM 18.0 °F 9.8 °F 10.0 °F 71% 29.89 in 3.0 mi SSW 5.8 mph - 0.00 in Snow Light Snow
1:46 PM 19.4 °F 8.6 °F 10.4 °F 68% 29.83 in 5.0 mi WSW 9.2 mph - 0.00 in Snow Light Snow
1:53 PM 19.0 °F 6.8 °F 10.9 °F 71% 29.88 in 5.0 mi WSW 11.5 mph - 0.00 in Snow Light Snow
2:04 PM 19.4 °F 7.9 °F 12.2 °F 74% 29.82 in 2.0 mi WSW 10.4 mph - 0.00 in Snow Light Snow
2:11 PM 19.4 °F 8.6 °F 12.2 °F 74% 29.82 in 2.0 mi West 9.2 mph - 0.00 in Snow Light Snow
2:18 PM 19.4 °F 9.5 °F 12.2 °F 74% 29.82 in 1.5 mi WSW 8.1 mph - 0.00 in Snow Light Snow
2:41 PM 19.4 °F 6.6 °F 10.4 °F 68% 29.82 in 1.5 mi West 12.7 mph - 0.00 in Snow Light Snow
2:43 PM 19.4 °F 6.6 °F 10.4 °F 68% 29.82 in 3.0 mi West 12.7 mph - 0.00 in Snow Light Snow
2:53 PM 19.9 °F 6.7 °F 10.9 °F 68% 29.87 in 3.0 mi West 13.8 mph - 0.00 in Snow Light Snow
3:23 PM 19.4 °F 6.0 °F 10.4 °F 68% 29.84 in 4.0 mi WNW 13.8 mph - 0.00 in Snow Light Snow
3:34 PM 19.4 °F 5.0 °F 10.4 °F 68% 29.84 in 4.0 mi West 16.1 mph - 0.00 in Snow Light Snow
3:45 PM 19.4 °F 6.0 °F 12.2 °F 74% 29.84 in 4.0 mi WNW 13.8 mph - 0.00 in Snow Light Snow
3:53 PM 19.0 °F 5.0 °F 12.0 °F 74% 29.90 in 3.0 mi WNW 15.0 mph - 0.00 in Snow Light Snow
4:01 PM 19.4 °F 7.2 °F 12.2 °F 74% 29.85 in 2.5 mi WNW 11.5 mph - 0.00 in Snow Light Snow
4:11 PM 19.4 °F 6.0 °F 12.2 °F 74% 29.85 in 3.0 mi West 13.8 mph - 0.00 in Snow Light Snow
4:53 PM 19.0 °F 5.6 °F 10.9 °F 71% 29.91 in 9.0 mi West 13.8 mph - 0.00 in   Overcast
5:53 PM 19.0 °F 5.6 °F 12.0 °F 74% 29.93 in 1.5 mi West 13.8 mph 20.7 mph N/A   Haze
6:07 PM 19.4 °F 4.1 °F 10.4 °F 68% 29.88 in 7.0 mi WNW 18.4 mph - 0.00 in Snow Light Snow
6:53 PM 18.0 °F 2.2 °F 8.1 °F 65% 29.97 in 8.0 mi WNW 18.4 mph 27.6 mph 0.00 in Snow Light Snow
7:53 PM 14.0 °F 2.0 °F 3.9 °F 64% 29.99 in 10.0 mi West 9.2 mph - 0.00 in   Clear
8:53 PM 12.9 °F 1.6 °F 3.0 °F 65% 30.00 in 10.0 mi West 8.1 mph - N/A   Clear
9:53 PM 16.0 °F 5.3 °F 6.1 °F 65% 30.01 in 10.0 mi West 8.1 mph - N/A   Overcast
10:53 PM 15.8 °F 5.1 °F 6.8 °F 68% 29.97 in 10.0 mi West 8.1 mph - N/A   Mostly Cloudy
11:53 PM 12.0 °F 2.7 °F 3.9 °F 70% 30.01 in 10.0 mi West 5.8 mph - N/A   Partly Cloudy